This is the latest recevied weather packets stored in our database for station/object KD4PMP. If no packets are shown the sender has not sent any weather packets the latest 10 day(s).
| Time | Temp. | Humidity | Pressure | Rain* | Wind** | Luminosity | Snow |
|---|---|---|---|---|---|---|---|
| 1787926837 | 26.11° C | 77% | 1017.2 hPa | 0 mm | - | - | - |
| 1787926230 | 26.11° C | 77% | 1017.1 hPa | 0 mm | - | - | - |
| 1787925624 | 25° C | 80% | 1017.1 hPa | 0 mm | - | - | - |
| 1787925018 | 24.44° C | 83% | 1017 hPa | 0 mm | - | - | - |
| 1787924412 | 23.89° C | 82% | 1017.1 hPa | 0 mm | - | - | - |
| 1787923805 | 23.89° C | 84% | 1017 hPa | 0 mm | - | - | - |
| 1787923198 | 23.33° C | 86% | 1016.7 hPa | 0 mm | - | - | - |
| 1787922592 | 22.22° C | 89% | 1016.9 hPa | 0 mm | - | - | - |
| 1787921985 | 21.67° C | 91% | 1017 hPa | 0 mm | - | - | - |
| 1787921379 | 21.11° C | 93% | 1017 hPa | 0 mm | - | - | - |
| 1787920772 | 20.56° C | 94% | 1016.9 hPa | 0 mm | - | - | - |
| 1787920166 | 20.56° C | 96% | 1016.9 hPa | 0 mm | - | - | - |
| 1787919559 | 20° C | 96% | 1016.8 hPa | 0 mm | - | - | - |
| 1787918953 | 20° C | 96% | 1016.7 hPa | 0 mm | - | - | - |
| 1787918346 | 20° C | 96% | 1016.5 hPa | 0 mm | - | - | - |
| 1787917739 | 19.44° C | 96% | 1016.4 hPa | 0 mm | - | - | - |
| 1787917133 | 19.44° C | 95% | 1016.1 hPa | 0 mm | - | - | - |
| 1787916527 | 19.44° C | 95% | 1015.9 hPa | 0 mm | - | - | - |
| 1787915920 | 19.44° C | 95% | 1015.8 hPa | 0 mm | - | - | - |
| 1787915314 | 19.44° C | 95% | 1015.7 hPa | 0 mm | - | - | - |
| 1787914708 | 20° C | 95% | 1015.6 hPa | 0 mm | - | - | - |
| 1787914101 | 20° C | 95% | 1015.5 hPa | 0 mm | - | - | - |
| 1787913495 | 20° C | 94% | 1015.6 hPa | 0 mm | - | - | - |
| 1787912889 | 20° C | 94% | 1015.5 hPa | 0 mm | - | - | - |
| 1787912283 | 20° C | 94% | 1015.5 hPa | 0 mm | - | - | - |
* Rain latest hour (hover to see other rain measurements)
** Current wind speed in m/s (hover to see current wind gust speed)